Regional Weather Roundup
Issued by NWS

Home | Current Version | Previous Version | Text Only | Print | Product List | Glossary Off
Versions: 1 2 3 4 5 6 7 8 9 10 11 12 13 14 15 16 17 18 19 20 21 22 23 24 25 26 27 28 29 30 31 32 33 34 35 36 37 38 39 40 41 42 43 44 45 46 47 48 49 50

921
ASUS43 KMPX 282310
RWRMN
WEATHER ROUNDUP FOR MINNESOTA
NATIONAL WEATHER SERVICE TWIN CITIES/CHANHASSEN MN
600 PM CDT SAT MAY 28 2016


NOTE: "FAIR" INDICATES FEW OR NO CLOUDS BELOW 12,000 FEET WITH NO
SIGNIFICANT WEATHER AND/OR OBSTRUCTIONS TO VISIBILITY. N/A MEANS
CURRENT SKY AND/OR WEATHER CONDITIONS ARE NOT AVAILABLE.

MNZ060>063-068>070-290000-
   Twin Cities Metro

CITY           SKY/WX    TMP DP  RH WIND       PRES   REMARKS
TWIN CITIES    CLOUDY    66  59  78 VRB5      29.77S
ST PAUL        LGT RAIN  65  61  87 N3        29.77R
CRYSTAL        CLOUDY    66  58  75 NW6       29.76R
BLAINE         PTSUNNY   66  64  94 N6        29.77R
EDEN PRAIRIE   CLOUDY    66  59  78 CALM      29.76S
SOUTH ST PAUL  CLOUDY    64  62  91 NW5       29.77R
LAKE ELMO      LGT RAIN  64  63  94 NW8       29.77S
$$
MNZ001>005-007-008-013>017-022>024-027-028-290000-
   Northwest Minnesota

CITY           SKY/WX    TMP DP  RH WIND       PRES   REMARKS
BEMIDJI        CLOUDY    59  57  92 CALM      29.80S
HALLOCK        CLOUDY    66  57  72 N12       29.82S
ROSEAU         RAIN      61  54  77 NE10      29.85R
WARROAD        DRIZZLE   57  55  94 NE9G18    29.86R
THIEF RVR FALL CLOUDY    61  55  82 NE6       29.84S
CROOKSTON      RAIN      63  61  94 NE8       29.83S
FOSSTON        CLOUDY    57  57 100 N5        29.82S
DETROIT LAKES  CLOUDY    61  57  88 NE5       29.82S
MOORHEAD       CLOUDY    64  59  82 N10       29.82S
PARK RAPIDS    LGT RAIN  60  57  89 CALM      29.79F FOG
MAHNOMEN       CLOUDY    59  58  96 N6        29.81S FOG
$$
MNZ006-009>011-018-025>026-290000-
   North Central Minnesota

CITY           SKY/WX    TMP DP  RH WIND       PRES   REMARKS
BAUDETTE       LGT RAIN  58  56  93 N13       29.83R
FLAG ISLAND    CLOUDY    59  55  88 N16       29.85S
INTL FALLS     LGT RAIN  59  58  96 NE5       29.81R VSB 1/2
WASKISH        CLOUDY    61  57  88 NE6       29.81S
BIG FORK       DRIZZLE   61  59  94 N3        29.80S
LONGVILLE      CLOUDY    61  57  88 CALM      29.79S
GRAND RAPIDS   CLOUDY    61  58  90 CALM      29.80S
CRANE LAKE     CLOUDY    61  57  88 CALM      29.81S
ORR            CLOUDY    61  57  88 CALM      29.77S
COOK           DRZL/FOG  63  61  94 CALM      29.80S VSB 1
WALKER         DRIZZLE   59  57  92 NW5       29.78F
$$
MNZ012-019>021-037-290000-
   Northeast Minnesota

CITY           SKY/WX    TMP DP  RH WIND       PRES   REMARKS
DULUTH         LGT RAIN  55  53  93 SE5       29.80R
ELY            CLOUDY    63  61  94 CALM      29.80S
HIBBING        CLOUDY    60  57  89 SE3       29.80R
EVELETH        CLOUDY    59  57  94 CALM      29.81F
DULUTH HARBOR  LGT RAIN  48  46  93 N3        29.82S VSB 1/2
TWO HARBORS    CLOUDY    61  55  82 CALM      29.79R
SILVER BAY     FOG       59  57  94 NE5       29.78F VSB 1/4
GRAND MARAIS     N/A     48  45  89 CALM      29.79R
G MARAIS ARPRT CLOUDY    63  57  82 N3        29.82S
$$
MNZ029>031-032-039>041-046>048-054>057-064-290000-
   West Central Minnesota

CITY           SKY/WX    TMP DP  RH WIND       PRES   REMARKS
FERGUS FALLS   CLOUDY    64  55  72 CALM      29.77S
WHEATON        DRIZZLE   66  57  72 CALM      29.82S
MORRIS         CLOUDY    63  61  94 NW6       29.79F
ALEXANDRIA     CLOUDY    62  58  86 N7        29.80F
ELBOW LAKE     DRIZZLE   62  58  87 CALM      29.80F
WADENA         DRIZZLE   61  55  82 NW3       29.79F
GLENWOOD       CLOUDY    63  57  82 NW5       29.80S
APPLETON       CLOUDY    64  59  82 W3        29.80R
BENSON         CLOUDY    64  57  77 N5        29.80S
ORTONVILLE     CLOUDY    64  57  77 N6        29.80F
MADISON        CLOUDY    64  59  82 NW3       29.81R
WILLMAR        PTSUNNY   68  61  77 NW10      29.80S
$$
MNZ033>034-036-042>043-049>051-058-059-290000-
   Central Minnesota

CITY           SKY/WX    TMP DP  RH WIND       PRES   REMARKS
ST CLOUD       CLOUDY    64  60  87 MISG      29.77S
SAUK CENTRE    CLOUDY    63  58  83 CALM      29.79S
PAYNESVILLE    CLOUDY    64  60  88 N5        29.79S
AITKIN         PTSUNNY   63  57  82 CALM      29.77F
PINE RIVER     RAIN      61  57  88 CALM      29.83S
BRAINERD       CLOUDY    60  58  92 NW3       29.79F
STAPLES        CLOUDY    61  57  88 NW6       29.78F
LONG PRAIRIE   CLOUDY    63  55  77 W6        29.80R
LITTLE FALLS   CLOUDY    61  55  82 CALM      29.79S
LITCHFIELD     CLOUDY    66  63  88 N6        29.79S
BUFFALO        CLOUDY    64  59  83 NE3       29.79R
MAPLE LAKE     PTSUNNY   66  61  83 N3        29.79R
HUTCHINSON     PTSUNNY   67  61  81 N7        29.79S
$$
MNZ037-044-045-052-053-290000-
   East Central Minnesota

CITY           SKY/WX    TMP DP  RH WIND       PRES   REMARKS
PRINCETON      CLOUDY    66  61  82 N7        29.78S
MORA           CLOUDY    63  57  82 CALM      29.79F
CAMBRIDGE      CLOUDY    66  57  72 N3        29.76R
RUSH CITY      LGT RAIN  63  60  91 N7        29.77F
MOOSE LAKE     CLOUDY    63  57  82 CALM      29.77S
HINCKLEY       CLOUDY    63  61  94 CALM      29.79S
CLOQUET        CLOUDY    61  57  88 E3        29.80R
MCGREGOR       CLOUDY    61  59  94 NW5       29.78F
$$
MNZ071>073-080-081-089-090-097-098-290000-
   Southwest Minnesota

CITY           SKY/WX    TMP DP  RH WIND       PRES   REMARKS
MONTEVIDEO     CLOUDY    66  61  82 N3        29.82S
GRANITE FALLS  CLOUDY    67  60  78 NW9       29.81S
CANBY          CLOUDY    66  61  84 NW5       29.82S
MARSHALL       PTSUNNY   65  58  78 N12       29.80F
REDWOOD FALLS  CLOUDY    67  59  75 N7        29.79R
OLIVIA         CLOUDY    72  63  73 N7        29.79S
PIPESTONE      MOSUNNY   66  57  72 N10       29.81R
WINDOM         LGT RAIN  64  61  88 CALM      29.79S
WORTHINGTON    CLOUDY    65  59  81 NE14      29.80R
JACKSON        RAIN      64  59  82 N10       29.79S
TRACY          PTSUNNY   65  60  85 N12       29.80S
SLAYTON        CLOUDY    63  60  87 N13       29.81R
$$
MNZ065>067-074>077-082>085-091>093-290000-
   South Central Minnesota

CITY           SKY/WX    TMP DP  RH WIND       PRES   REMARKS
MANKATO        CLOUDY    66  61  82 NW5       29.77R
NEW ULM        CLOUDY    64  63  94 N8G17     29.78R
ST JAMES       CLOUDY    63  57  82 NW10      29.79R
FAIRMONT       CLOUDY    63  59  88 CALM      29.78F
GLENCOE        CLOUDY    65  62  89 N3        29.78R
FARIBAULT      MOSUNNY   66  63  88 E2        29.77F
OWATONNA       MOSUNNY   66  61  82 SE5       29.76F
WASECA         CLOUDY    68  61  77 CALM      29.77F
ALBERT LEA     PTSUNNY   66  61  82 CALM      29.76F
$$
MNZ078>079-086>088-094>096-290000-
   Southeast Minnesota

CITY           SKY/WX    TMP DP  RH WIND       PRES   REMARKS
ROCHESTER      LGT RAIN  64  59  83 W8        29.79S
RED WING       LGT RAIN  66  64  94 W3        29.76S
STANTON        CLOUDY    67  62  85 CALM      29.75S
DODGE CENTER   CLOUDY    63  63 100 W6        29.78F
WINONA         HVY RAIN  70  64  83 S5        29.77R
AUSTIN         CLOUDY    64  57  77 CALM      29.78S
PRESTON        PTSUNNY   66  58  74 W14       29.78R
$$
ABBREVIATIONS USED IN REMARKS
   TC - TEMPERATURES IN CELSIUS
  WCI - WIND CHILL INDEX
   HX - HEAT INDEX
  VSB - VISIBILITY
$$




USA.gov is the U.S. government's official web portal to all federal, state and local government web resources and services.